Погода в Лапуа

Финляндия     62°58′20″N   23°00′13″E
темп.,
°C
ветер,
м/с
пор.,
м/с
влажн.,
%
обл.,
%
осадки,
мм/ч
давл.,
гПа
погр.,
м
29 января, сб
сб2923:00−9ююз24939 0.0 100862
02:00−8ю2692100 0.0 1005100
05:00−4ю41480100 0.0 1001441
08:00−3ю51478100 0.0 997671
11:00−3ю61594100 0.5 992797
14:000ю51395100 1.3 986914
17:000ююв41297100 1.0 981738
20:00−1юв51394100 2.2 976740
30 января, вс
вс3023:00−1вюв51294100 0.6 973822
02:00−2всв51195100 1.6 974758
05:00−3св51191100 1.1 977630
08:00−4ссв41095100 1.9 982655
11:00−4ссв51091100 0.5 986749
14:00−4с4989100 0.6 990872
17:00−5с51192100 0.3 993745
20:00−6с51293100 0.8 997644
31 января, пн
пн3123:00−6с51292100 0.3 998599
02:00−6с41291100 0.4 999590
05:00−7с41291100 0.0 1001503
08:00−9с4139049 0.0 1001444
11:00−8с4139021 0.0 1002499
14:00−7с4128820 0.0 1002554
17:00−9с310925 0.0 1003359
20:00−11с311925 0.0 1003311
1 февраля, вт
вт123:00−11с311925 0.0 1003310
02:00−12с310935 0.0 1002280
05:00−12с310935 0.0 1001263
08:00−13с2109255 0.0 1000244
11:00−11ссз2891100 0.0 999281
14:00−9ссз2691100 0.0 997306
17:00−11ссз259796 0.1 996190
20:00−12ссз139977 0.1 99674
2 февраля, ср
ср223:00−13ссз1199100 0.0 99519
02:00−13сз119981 0.1 99521
05:00−15сз119983 0.0 99613
08:00−15сз1110083 0.1 99710
11:00−12ссз129566 0.0 99862
14:00−10ссз129181 0.1 999210
17:00−12сз119979 0.0 100110
20:00−15сз1110083 0.1 10039